"Pseudo-MPEC" for P10OT6k

Created 2019 Jun 16 14:07:53 UT using Find_Orb

Click here for an explanation of pseudo-MPECs

 
 Astrometry: 
     P10OT6k  C2019 06 09mk!h;pB=qB/j]DFdb#CAstrometry`4BdVAJ'mi[B\x$uHF8?B!0F51
     P10OT6k  C2019 06 09%EViredacted;b3fHG.2#*6^w%sclickt;yr?tt?hereg:aB$fB4F51
     P10OT6k  C2019 06 090*GvRn_LiT0@Y^nt]@m2;2SUsuY9=GIGnFyb_=hNKSH*7=XN]K:xF51
     P10OT6k  C2019 06 097m-dC@$`gMb[Max2Y@:for*Mexplanation=id4!mq'aJ/1)R,alF51

Station data:
(F51) Pan-STARRS 1, Haleakala  (N20.707235 W156.255910)  US/Hawaii.
   Observers N. Primak, A. Schultz, S. Watters, J. Thiel, T. Goggia. Measurer
   PS1 Science Consortium. 1.8-m Ritchey-Chrétien + CCD.

Orbital elements:  P10OT6k
   Perihelion 2017 Jul 20.758475 +/- 423 TT = 18:12:12 (JD 2457955.258475)
Epoch 2019 Jun 10.0 TT = JDT 2458644.5   Earth MOID: 0.6331   AutoNEOCP
M 150.81198733 +/- 120              (J2000 ecliptic)
n   0.21880862 +/- 0.401            Peri.  238.82203 +/- 80
a   2.72746862 +/- 3.33             Node   270.71509 +/- 80
e   0.4233404 +/- 0.227             Incl.   13.58003 +/- 39
P   4.50                   H 16.1   G  0.15   U 12.1  SR
q 1.57282094 +/- 2.06    Q 3.88211630 +/- 61.3
From 4 observations 2019 June 9 (50.6 min); mean residual 0".03
Residuals in arcseconds: 
190609 F51  .02+  .00     190609 F51  .02+  .05-    
190609 F51  .04-  .03+    190609 F51  .00   .03+    

Ephemerides (geocentric):
Date (UTC) HH   RA              Dec         delta   r     elong  mag " sig PA
---- -- -- --  -------------   -----------  ------ ------ -----  --- ---- ---
2019 06 16 14  21 53 58.215   -00 41 13.07  3.2877 3.8151 114.0 22.4  31d   0
2019 06 16 15  21 53 57.872   -00 41 04.37  3.2872 3.8152 114.0 22.4  31d   0
2019 06 16 16  21 53 57.526   -00 40 55.68  3.2866 3.8152 114.1 22.4  31d   0
2019 06 16 17  21 53 57.179   -00 40 47.01  3.2861 3.8153 114.1 22.4  31d   0
2019 06 16 18  21 53 56.830   -00 40 38.34  3.2856 3.8153 114.1 22.4  31d   0
2019 06 16 19  21 53 56.479   -00 40 29.68  3.2851 3.8154 114.2 22.4  31d   0
2019 06 16 20  21 53 56.126   -00 40 21.03  3.2846 3.8154 114.2 22.4  31d   0
2019 06 16 21  21 53 55.772   -00 40 12.39  3.2841 3.8154 114.3 22.4  31d   0
2019 06 16 22  21 53 55.416   -00 40 03.76  3.2835 3.8155 114.3 22.4  31d   0
2019 06 16 23  21 53 55.058   -00 39 55.13  3.2830 3.8155 114.3 22.4  31d   0
2019 06 17 00  21 53 54.698   -00 39 46.52  3.2825 3.8156 114.4 22.4  31d   0
2019 06 17 01  21 53 54.336   -00 39 37.92  3.2820 3.8156 114.4 22.4  31d   0
2019 06 17 02  21 53 53.973   -00 39 29.32  3.2815 3.8157 114.4 22.4  31d   0
2019 06 17 03  21 53 53.608   -00 39 20.74  3.2809 3.8157 114.5 22.4  31d   0
2019 06 17 04  21 53 53.241   -00 39 12.16  3.2804 3.8158 114.5 22.4  31d   0
2019 06 17 05  21 53 52.872   -00 39 03.59  3.2799 3.8158 114.6 22.4  31d   0
2019 06 17 06  21 53 52.502   -00 38 55.03  3.2794 3.8158 114.6 22.4  31d   0
2019 06 17 07  21 53 52.129   -00 38 46.49  3.2789 3.8159 114.6 22.3  31d   0
2019 06 17 08  21 53 51.755   -00 38 37.95  3.2784 3.8159 114.7 22.3  31d   0
2019 06 17 09  21 53 51.379   -00 38 29.42  3.2778 3.8160 114.7 22.3  31d   0
2019 06 17 10  21 53 51.002   -00 38 20.90  3.2773 3.8160 114.8 22.3  31d   0
2019 06 17 11  21 53 50.622   -00 38 12.38  3.2768 3.8161 114.8 22.3  31d   0
2019 06 17 12  21 53 50.241   -00 38 03.88  3.2763 3.8161 114.8 22.3  31d 179
2019 06 17 13  21 53 49.858   -00 37 55.39  3.2758 3.8162 114.9 22.3  35d 174
2019 06 17 14  21 53 49.473   -00 37 46.91  3.2753 3.8162 114.9 22.3  36d 176
2019 06 17 15  21 53 49.087   -00 37 38.43  3.2748 3.8162 115.0 22.3  36d 177
2019 06 17 16  21 53 48.698   -00 37 29.97  3.2742 3.8163 115.0 22.3  36d 178
2019 06 17 17  21 53 48.308   -00 37 21.51  3.2737 3.8163 115.0 22.3  36d 178
2019 06 17 18  21 53 47.916   -00 37 13.07  3.2732 3.8164 115.1 22.3  36d 178
2019 06 17 19  21 53 47.522   -00 37 04.63  3.2727 3.8164 115.1 22.3  36d 179
2019 06 17 20  21 53 47.127   -00 36 56.20  3.2722 3.8165 115.2 22.3  36d 179
2019 06 17 21  21 53 46.729   -00 36 47.78  3.2717 3.8165 115.2 22.3  36d 179
2019 06 17 22  21 53 46.330   -00 36 39.38  3.2712 3.8165 115.2 22.3  36d 179
2019 06 17 23  21 53 45.929   -00 36 30.98  3.2706 3.8166 115.3 22.3  36d 179
2019 06 18 00  21 53 45.527   -00 36 22.59  3.2701 3.8166 115.3 22.3  36d 179
2019 06 18 01  21 53 45.122   -00 36 14.21  3.2696 3.8167 115.4 22.3  36d 179
2019 06 18 02  21 53 44.716   -00 36 05.84  3.2691 3.8167 115.4 22.3  36d 179
2019 06 18 03  21 53 44.308   -00 35 57.47  3.2686 3.8168 115.4 22.3  36d   0
2019 06 18 04  21 53 43.898   -00 35 49.12  3.2681 3.8168 115.5 22.3  36d   0
2019 06 18 05  21 53 43.486   -00 35 40.78  3.2676 3.8168 115.5 22.3  36d   0
2019 06 18 06  21 53 43.073   -00 35 32.45  3.2670 3.8169 115.5 22.3  36d   0
2019 06 18 07  21 53 42.658   -00 35 24.12  3.2665 3.8169 115.6 22.3  36d   0
2019 06 18 08  21 53 42.241   -00 35 15.81  3.2660 3.8170 115.6 22.3  36d   0
2019 06 18 09  21 53 41.822   -00 35 07.50  3.2655 3.8170 115.7 22.3  36d   0
2019 06 18 10  21 53 41.401   -00 34 59.21  3.2650 3.8171 115.7 22.3  36d   0
2019 06 18 11  21 53 40.979   -00 34 50.92  3.2645 3.8171 115.7 22.3  36d   0
2019 06 18 12  21 53 40.555   -00 34 42.64  3.2640 3.8172 115.8 22.3  36d   0
2019 06 18 13  21 53 40.129   -00 34 34.38  3.2635 3.8172 115.8 22.3  36d   0